TimeEDT,TemperatureF,Dew PointF,Humidity,Sea Level PressureIn,VisibilityMPH,Wind Direction,Wind SpeedMPH,Gust SpeedMPH,PrecipitationIn,Events,Conditions,WindDirDegrees,DateUTC
12:53 AM,55.0,45.0,69,30.25,10.0,Calm,Calm,-,N/A,,Clear,0,2013-08-25 04:53:00
1:53 AM,53.1,44.1,71,30.25,10.0,WNW,6.9,-,N/A,,Clear,290,2013-08-25 05:53:00
2:53 AM,51.1,45.0,80,30.25,10.0,West,3.5,-,N/A,,Clear,280,2013-08-25 06:53:00
3:53 AM,51.1,45.0,80,30.26,10.0,NW,3.5,-,N/A,,Clear,310,2013-08-25 07:53:00
4:53 AM,51.1,46.0,83,30.27,10.0,Calm,Calm,-,N/A,,Clear,0,2013-08-25 08:53:00
5:53 AM,50.0,46.0,86,30.29,10.0,NW,3.5,-,N/A,,Clear,310,2013-08-25 09:53:00
6:53 AM,52.0,48.9,89,30.30,10.0,WNW,4.6,-,N/A,,Clear,290,2013-08-25 10:53:00
7:53 AM,55.9,50.0,80,30.30,10.0,Calm,Calm,-,N/A,,Clear,0,2013-08-25 11:53:00
8:53 AM,61.0,52.0,72,30.29,10.0,WNW,3.5,-,N/A,,Clear,290,2013-08-25 12:53:00
9:53 AM,64.9,51.1,61,30.28,10.0,Variable,3.5,-,N/A,,Clear,0,2013-08-25 13:53:00
10:49 AM,69.8,51.8,53,30.27,10.0,WNW,5.8,-,N/A,,Partly Cloudy,290,2013-08-25 14:49:00
10:53 AM,69.1,52.0,54,30.27,10.0,WNW,3.5,-,N/A,,Partly Cloudy,290,2013-08-25 14:53:00
11:53 AM,72.0,50.0,46,30.25,10.0,WSW,6.9,-,N/A,,Clear,250,2013-08-25 15:53:00
12:53 PM,73.9,51.1,45,30.23,10.0,Variable,3.5,-,N/A,,Clear,0,2013-08-25 16:53:00
1:53 PM,73.9,50.0,43,30.21,10.0,SSE,4.6,-,N/A,,Clear,160,2013-08-25 17:53:00
2:53 PM,75.0,51.1,43,30.20,10.0,WSW,5.8,-,N/A,,Clear,250,2013-08-25 18:53:00
3:53 PM,75.0,51.1,43,30.18,10.0,WSW,3.5,-,N/A,,Partly Cloudy,250,2013-08-25 19:53:00
4:53 PM,73.9,52.0,46,30.16,10.0,SE,5.8,-,N/A,,Clear,140,2013-08-25 20:53:00
5:53 PM,73.0,53.1,49,30.14,10.0,SSE,5.8,-,N/A,,Clear,160,2013-08-25 21:53:00
6:53 PM,71.1,51.1,49,30.12,10.0,South,3.5,-,N/A,,Clear,170,2013-08-25 22:53:00
7:53 PM,66.9,53.1,61,30.11,10.0,SSE,5.8,-,N/A,,Partly Cloudy,160,2013-08-25 23:53:00
8:53 PM,64.9,53.1,65,30.11,10.0,SSE,5.8,-,N/A,,Clear,160,2013-08-26 00:53:00
9:53 PM,63.0,54.0,72,30.09,10.0,SE,5.8,-,N/A,,Clear,140,2013-08-26 01:53:00
10:53 PM,63.0,53.1,70,30.08,10.0,South,4.6,-,N/A,,Clear,180,2013-08-26 02:53:00
11:53 PM,61.0,54.0,78,30.06,10.0,South,4.6,-,N/A,,Clear,190,2013-08-26 03:53:00